Tracking 26544 objects as of 9-Dec-2022
HD Live streaming from Space Station
objects crossing your sky now

FLOCK 4P 6

Track FLOCK 4P 6 now!
10-day predictions
FLOCK 4P 6 is classified as:


NORAD ID: 44817
Int'l Code: 2019-081P
Perigee: 459.6 km
Apogee: 468.5 km
Inclination: 97.4 °
Period: 93.7 minutes
Semi major axis: 6835 km
RCS: Unknown
Launch date: November 27, 2019
Source: United States (US)
Launch site: SRIHARIKOTA (SRI)
aabbcc
Your satellite tracking list
Your tracking list is empty




NASA's NSSDC Master Catalog

Two Line Element Set (TLE):
1 44817U 19081P   22342.45153731  .00033133  00000-0  93307-3 0  9993
2 44817  97.3767  47.4476 0006503 317.7211  42.3531 15.36365320168561
Source of the keplerian elements: AFSPC